Location: Cheching
(60.0667°N, 164.2167°W)
Time: 15:32:18
(UTC+00:00)

O/OREOS (USA 219) - Pass Details

Date: 25 January 2021
Orbit: 621 x 646 km, 72.0° (Epoch: 22 May)

Event Time Altitude Azimuth Distance (km) Brightness Sun altitude
Rises 17:23:15 0° 197° (SSW) 2,953 ? -14.5°
Reaches altitude 10° 17:25:34 10° 193° (SSW) 2,046 ? -14.2°
Maximum altitude 17:30:01 51° 118° (ESE) 816 ? -13.7°
Drops below altitude 10° 17:34:29 10° 43° (NE) 2,052 ? -13.1°
Sets 17:36:48 0° 38° (NE) 2,962 ? -12.8°
